Погода в Термезе

Погода в Термезе : погода сейчас, прогноз погоды и архив. Всё, что Вы хотите узнать о погоде в Термезе!

Поиск расширенной информации на нашем сайте:

Другие новости

Новости СМИ2

Главная страница сайта

Новости сайта

03.07.2017

Напоминаем, что на нашем специализированном сайте Метеоцентр.Азия вы можете получить высокодетализированные автоматические прогнозы погоды по пунктам России, СНГ и мира в авиационном формате (включающие направление и скорость ветра, видимость, явления погоды, количество и форму облачности, нижнюю и верхнюю границу облачности).

Рекомендуем: Бесплатная доставка обедов в офис вкусный ланч доставка обедов в офис.

Погода в Термезе - сегодня

Время (UTC), дата Ветер
(°,м/с) 
Видим.   Явления Облачность Т
(°С)
Тd
(°С)
f(%) Тe
(°С)
Pmin
(гПа)
dP
(гПа)
Po
(мм)
O2
(г/м3)
Тmin Tmax R s Состояние
почвы
09 19.07.17 280 (З) 10 км    ясно 
+36.1 +12.2 24 +41  1004.3  -1.8  728  257           
12 19.07.17 290 (З) 10 км    ясно 
+37.3 +10 19 +39  1001.7  -2.4  726  256           
15 19.07.17 230 (ЮЗ) 10 км    ясно 
+32.7 +15 34 +42  1000.9  -1.2  725  258    +37.3       
18 19.07.17 200 (Ю) 10 км    ясно 
+28.5 +10.3 32 +31  1001.7  0.2  725  263    +37.3       
21 19.07.17 тихо ()   10 км    ясно 
+24.4 +10.6 42 +27  1002.1  725  266           
00 20.07.17 тихо ()   10 км    ясно 
+21 +11.9 56 +25  1003.3  0.7  726  269           
03 20.07.17 270 (З) 10 км    ясно 
+25.1 +11.3 42 +29  1004.2  1.4  727  266           
06 20.07.17 280 (З) 10 км    ясно 
+32.2 +11.4 28 +36  1003.6  0.2  727  260  +19.2         
09 20.07.17 300 (СЗ) 10 км    ясно 
+36.8 +8.8 18 +37  1001.9  -1.3  726  256           
12 20.07.17 280 (З) 10 км    ясно 
+37.8 +8 16 +38  999.2  -2.4  724  255           
15 20.07.17 260 (З) 10 км    ясно 
+32.9 +12.5 29 +38  999.2  -0.4  724  258    +38.5       
18 20.07.17 230 (ЮЗ) 10 км    ясно 
+28.1 +7 26 +28  1000.7  0.7  725  264    +38.5       
21 20.07.17 100 (В) 10 км    ясно 
+22.3 +14.3 61 +31  1000.9  -0.3  724  267           
00 21.07.17 тихо ()   10 км    ясно 
+21.3 +12.1 56 +26  1002.2  1.1  725  269           
03 21.07.17 270 (З) 10 км    ясно 
+25.1 +10.6 40 +28  1003.5  1.7  727  266           
06 21.07.17 270 (З) 10 км    ясно 
+34 +5.9 17 +34  1002.6  727  259  +19.5         
09 21.07.17 280 (З) 10 км    ясно 
+38.4 +6.7 14 +38  1000.6  -1.4  725  255           
12 21.07.17 280 (З) 10 км    ясно 
+39.5 +8.9 16 +40  998.8  -1.6  724  253           
15 21.07.17 270 (З) 10 км    ясно 
+32.5 +13.3 31 +39  999.1  -0.5  724  258    +39.7       
18 21.07.17 210 (ЮЗ) 10 км    ясно 
+28 +10.5 34 +31  1000.1  0.6  724  263    +39.7       
21 21.07.17 090 (В) 10 км    ясно 
+23.9 +13 50 +30  1001  0.4  725  266           
00 22.07.17 260 (З) 10 км    ясно 
+21.5 +10.4 49 +24  1002.2  0.8  725  269           
03 22.07.17 230 (ЮЗ) 10 км    ясно 
+26.8 +10.2 35 +29  1003.5  1.8  727  265           
06 22.07.17 260 (З) 10 км    ясно 
+34.5 +9.4 22 +36  1002.8  0.2  727  258  +20.4         
09 22.07.17 280 (З) 10 км    ясно 
+38.5 +8.5 16 +39  1001.1  -1.2  726  255           
Время (UTC), дата Ветер
(°,м/с) 
Видим.   Явления Облачность Т
(°С)
Тd
(°С)
f(%) Тe
(°С)
Pmin
(гПа)
dP
(гПа)
Po
(мм)
O2
(г/м3)
Тmin Tmax R s Состояние
почвы

Для получения пояснительной информации подведите курсор к названию столбца.

ПОГОДА в Термезе - архив

Всё, что Вы хотите узнать о погоде в Термезе - удобно и подробно!

Выберите нужную дату (начиная с 1 января 2015* года) и нажмите кнопку "Найти".
Будут отображены архивные сводки погоды по пункту Термез, начиная с указанной даты.


Отображать данные в формате CSV (для использования в таблицах Excel)


Внимание! Наш архив погоды предназначен исключительно для личного некоммерческого использования в познавательных целях. Если Вам необходимы официальные справки о состоянии погоды (для производственных, юридических, коммерческих и т.п. целей), обращайтесь в органы Росгидромета.

*Примечание: данная дата относится к архиву по метеостанциям СССР (Россия, СНГ, Балтия).
Архив по метеостанциям Зарубежной Европы и Азии (кроме Китая) хранится 10 дней, по другим регионам земного шара (Китай, Африка, Америка, Австралия, Океания) - 1 день.

Термез - район местоположения метеостанции


Название, широта, долгота, высота метеостанции:
Термез 37.2°ш. 67.3°д. 310 м над ур. моря [Узбекистан]

Дополнительная информация

В oтличие oт бoльшинства пoгoдных сайтoв мы публикуем пoдрoбную метеoинфoрмацию в детальнoм прoфессиoнальнoм фoрмате.

Характеристики температуры и влажнoсти вoздуха измеряются на высoте 2 м в тени вдали oт зданий и деревьев.
Скoрoсть ветра измеряется на высoте 10 м (на урoвне рoста челoвека скoрoсть ветра ниже в 1.5-2 раза). Если метеoстанция нахoдится в гoрoде или в лесу, тo скoрoсть ветра занижена на 2-4 м/с пo сравнению с oткрытым местoм. Скoрoсть ветра над акватoриями крупных рек и oзёр, а также на вершинах хoлмoв на 2-5 м/с выше, чем в oбычных услoвиях.
Атмoсфернoе давление в разных тoчках местнoсти мoжет значительнo oтличаться oт давления на метеoстанции, в зависимoсти oт услoвий рельефа (при пoдъёме на 10 м давление пoнижается примернo на 1 мм рт.ст.).